Location: Amherst
(42.3800°N, 72.5240°W)
Time: 11:57:34
(UTC-04:00)

ISS - Pass Details

Date: 26 May 2021
Orbit: 417 x 422 km, 51.6° (Epoch: 14 June)

Event Time Altitude Azimuth Distance (km) Brightness Sun altitude
Rises 00:02:33 0° 300° (WNW) 2,368 0.6 -25.6°
Reaches altitude 10° 00:04:41 10° 294° (WNW) 1,502 -0.5 -25.7°
Enters shadow 00:05:18 14° 291° (WNW) 1,266 -1.0 -25.7°
